Content
SEND FEEDBACK

Daily
Averages
Monthly
Summary
United States of America

BLACK CREEK, NORTH CAROLINA


Home > North America > United States > North Carolina
Elevation: 96 feet     Latitude: 35 42N     Longitude: 077 57W

WEATHER
 
SELECT A DAY
Number of Records: 178,406;   Date Range: 1/1/95 - 9/18/14
 
SHARE

PRINT THIS DATA

[ ← Previous Day ]
WEATHER ALMANAC - JANUARY 31, 2013
[ Next Day → ]
[ °C ]   °F
Weather ElementAverageHighLow
Temperature51 °F72 °F (12:53 am)33.1 °F (10:53 pm)
Dewpoint33.3 °F62.1 °F (12:53 am)18 °F (4:53 pm)
Humidity54.2 %88 % (1:05 am)28 % (2:53 pm)
Barometer29.75 in30.03 in (9:53 pm)29.37 in (12:53 am)
Wind Speed14.4 mph26.5 mph (1:13 am)
Wind Gust54.1 mph (1:05 am)
Weather ElementAverage
Visibility8.8 mi
Wind DirectionWSW (239.3 °)

Weather ElementTotal
Precipitation1.04 in
Heating Degree Days12.5 (Base 65)
Growing Degree Days2.6 (Base 50)
Averaged from 28 records on January 31, 2013
WEATHER CONDITIONS BREAKOUT
WIND DIRECTION BREAKOUT
WEATHER BY HOUR - JANUARY 31, 2013
[ °C ]   °F
Local TimeTemperatureDewpointHumidityBarometerVisibilityWind DirectionWind SpeedGust SpeedPrecipitationEventsConditions
12:53 AM72.0 °F62.1 °F71 %29.37 in10.0 miSouth (180°)18.4 mph38.0 mph0.00 inRainLight Rain
1:05 AM64.4 °F60.8 °F88 %29.46 in1.0 miWSW (250°)25.3 mph54.1 mph0.23 inRainHeavy Rain
1:10 AM62.6 °F59.0 °F88 %29.45 in2.0 miWSW (250°)17.3 mph39.1 mph0.24 inRainLight Rain
1:13 AM62.6 °F59.0 °F88 %29.47 in6.0 miWSW (250°)26.5 mph35.7 mph0.24 inRainLight Rain
1:53 AM57.9 °F53.1 °F84 %29.51 in6.0 miWSW (240°)19.6 mph36.8 mph0.28 inRainLight Rain
2:53 AM55.0 °F48.9 °F80 %29.50 in10.0 miSSW (210°)18.4 mph24.2 mph0.04 inRainLight Rain
3:53 AM53.1 °F46.9 °F80 %29.52 in10.0 miSW (220°)17.3 mph27.6 mph0.01 inOvercast
4:53 AM53.1 °F44.1 °F71 %29.56 in10.0 miSW (230°)19.6 mph28.8 mphOvercast
5:53 AM52.0 °F43.0 °F71 %29.59 in10.0 miWSW (240°)15.0 mph23.0 mphOvercast
6:53 AM51.1 °F42.1 °F71 %29.65 in10.0 miWest (260°)11.5 mph0.00 inMostly Cloudy
7:53 AM51.1 °F30.9 °F46 %29.70 in10.0 miWest (260°)17.3 mph35.7 mphOvercast
8:53 AM48.9 °F30.0 °F48 %29.75 in10.0 miWSW (250°)21.9 mph31.1 mphClear
9:53 AM50.0 °F30.9 °F48 %29.80 in10.0 miWest (260°)15.0 mph24.2 mphPartly Cloudy
10:53 AM48.9 °F25.0 °F39 %29.83 in10.0 miWest (270°)17.3 mph32.2 mphClear
11:53 AM51.1 °F24.1 °F35 %29.84 in10.0 miWest (260°)13.8 mph26.5 mphClear
12:06 PM51.8 °F24.8 °F35 %29.84 in1.8 miWest (280°)16.1 mph24.2 mphHaze
12:21 PM51.8 °F23.0 °F33 %29.83 in10.0 miWSW (250°)12.7 mph23.0 mphClear
12:53 PM51.1 °F23.0 °F33 %29.82 in10.0 miWest (280°)10.4 mph24.2 mphClear
1:53 PM52.0 °F21.0 °F30 %29.83 in10.0 miWest (270°)12.7 mph27.6 mphClear
2:53 PM51.1 °F19.0 °F28 %29.84 in10.0 miWest (260°)15.0 mph29.9 mphClear
3:53 PM50.0 °F19.0 °F29 %29.88 in10.0 miWSW (250°)13.8 mph23.0 mphClear
4:53 PM48.9 °F18.0 °F29 %29.91 in10.0 miWest (280°)15.0 mph24.2 mphClear
5:53 PM46.9 °F18.0 °F32 %29.93 in10.0 miWest (270°)9.2 mphClear
7:53 PM39.0 °F21.9 °F50 %29.99 in10.0 miSW (220°)3.5 mphClear
8:53 PM43.0 °F18.0 °F37 %30.01 in10.0 miWest (280°)10.4 mphClear
9:53 PM41.0 °F19.9 °F43 %30.03 in10.0 miWSW (250°)5.8 mphClear
10:53 PM33.1 °F23.0 °F66 %30.02 in10.0 miSouth (180°)3.5 mphClear
11:53 PM34.0 °F23.0 °F64 %30.03 in10.0 miCalmClear
Hourly data recorded from KRWI, located miles away from Black Creek, North Carolina







STORIES FROM OUR PARTNERS